Flag for Norway Weather past 2 weeks in Svolvær, Norway

Now
38 °F

Chilly.


Feels Like: 29 °F
Forecast: 36 / 40 °F
Wind: 15 mph from Northeast

Location: Skrova Fyr

Current Time: Apr 26, 2015 at 8:27:32 AM

Latest Report: Apr 26, 2015 at 7:00 AM


Visibility: N/A

Pressure: 29.57 "Hg

Humidity: 50%

Dew point: 20 °F

Location of SvolværLocation

Historic Weather in Svolvær — Graph

°F

Svolvær temperature yesterday

Maximum temperature yesterday: 40 °F (at 3:00 PM)
Minimum temperature yesterday: 36 °F (at 7:00 AM)
Average temperature yesterday: 38 °F

Past Weeks' High & Low Weather Summary

 TemperatureHumidityPressure
High44 °F (Apr 16, 3:00 PM)96% (Apr 20, 1:00 AM)30.25 "Hg (Apr 20, 1:00 AM)
Low33 °F (Apr 23, 11:00 AM)48% (Apr 12, 1:00 AM)29.15 "Hg (Apr 23, 8:00 AM)
Average39 °F79%29.74 "Hg
* Reported Apr 11 7:00 AM — Apr 26 7:00 AM, Svolvær, Weather by CustomWeather, © 2015

Note: Actual official high and low records may vary slightly from our data, if they occured in-between our weather recording intervals... More about our weather records

Advertising

Svolvær weather history for previous 24 hours

 ConditionsComfort  
Time TempWeatherWind HumidityBarometerVisibility
7:00 AM
Sun, Apr 26
38 °FChilly.15 mph50%29.57 "HgN/A
6:00 AM37 °FChilly.16 mph58%29.58 "HgN/A
4:00 AM37 °FChilly.16 mph60%29.60 "HgN/A
3:00 AM37 °FChilly.14 mph52%29.62 "HgN/A
2:00 AM36 °FChilly.14 mph49%29.64 "HgN/A
1:00 AM37 °FChilly.14 mph51%29.66 "HgN/A
12:00 AM37 °FChilly.13 mph55%29.68 "HgN/A
10:00 PM
Sat, Apr 25
37 °FChilly.12 mph55%29.70 "HgN/A
8:00 PM38 °FChilly.12 mph51%29.71 "HgN/A
7:00 PM39 °FChilly.10 mph52%29.72 "HgN/A
6:00 PM39 °FChilly.12 mph53%29.73 "HgN/A
5:00 PM40 °FChilly.12 mph50%29.74 "HgN/A
4:00 PM40 °FChilly.12 mph51%29.75 "HgN/A
3:00 PM40 °FChilly.10 mph48%29.76 "HgN/A
2:00 PM39 °FChilly.13 mph49%29.76 "HgN/A
1:00 PM39 °FChilly.10 mph54%29.76 "HgN/A
12:00 PM39 °FChilly.12 mph58%29.76 "HgN/A
11:00 AM37 °FChilly.14 mph59%29.75 "HgN/A
10:00 AM37 °FChilly.15 mph60%29.75 "HgN/A
9:00 AM36 °FChilly.15 mph62%29.74 "HgN/A
8:00 AM36 °FChilly.14 mph63%29.72 "HgN/A
Weather by CustomWeather, © 2015

See weather overviewHow to use our weather pages